FENGYUN 1C DEB, 29937

Orbit data source: Space-Track

FENGYUN 1C DEB, 29937 is space debris in SSO originally from a launch on Mon, 10 May 1999 UTC launched from the Taiyaun Space Center, China (TSC). Fengyun 1C debris stems from the Chinese weather satellite Fengyun-1C, which was intentionally destroyed by a Chinese anti-satellite missile in 2007. This event dramatically increased the amount of space debris, with thousands of trackable fragments posing hazards to satellites and human spaceflight. The Fengyun 1C debris cloud has become a focal point in discussions about space sustainability and the need for international regulations to prevent the creation of new debris.

Loading next visibility...
Identifier
29937, 1999-025JK
Orbit
SSO
Country
Flag of CNCN / PRC
Related business
Manufacturer
Unknown
Mission
Spacecraft
Bus & Motor
Unknown
Mass
Unknown
Launch date (UTC)
1999-05-10 (27 years ago)
Launch vehicle
Unknown
Launch site
Taiyaun Space Center, China (TSC)
Object type
Payload
Rocket body
Debris
Shape & HBR
Unknown shape, 0.3 m
Radar Cross Section
Medium (>0.1 m² and <1 m²)

Expand to show TLE details & history
Last TLE update: 18 hours ago

TLE from 18 hours ago
0 FENGYUN 1C DEB
1 29937U 99025JK  26263.62473904 -.00000050  00000-0 -42366-5 0  9992
2 29937  98.7864 280.7213 0031125 311.7527 162.7906 14.04410139  8933
Epoch: 2026-09-20T14:59Z
TLE epoch observation values (Epoch: 2026-09-20T14:59:37.453Z)
Latitude
64.01448°
Longitude
-105.3131°
Altitude
911.134 km
Speed
7.391 km/s
True Right ascension
07h 56m 26s
True Declination
63° 52' 54"
Sunlit
Object was in daylight at epoch
Visualization orbit readout
Latitude
Unknown
Longitude
Unknown
Altitude
Unknown
Speed
Unknown
Apparent Right ascension
Unknown
Apparent Declination
Unknown
Sunlit
N/A
Visualization observer readout
Local Sidereal Time
02:03:11
Azimuth
Unknown
Elevation
Unknown
Doppler factor
Unknown
Orbital elements
Apogee altitude
898.324 km
Perigee altitude
853.169 km
Semi-major axis
7,253.884 km
Eccentricity
0.00311
Inclination
98.7864°
RAAN
280.7213°
Arg. of periapsis
311.7527°
True anomaly
162.89573°
Mean anomaly
162.7906°
Eccentric anomaly
162.84321°
Mean motion
3.51307 °/min
Orbital period
102.47 mins
BSTAR
-0.0000042366
Loading maneuver chart data...
Computing Atmospheric mass density...

Documentation

Showing up to 5 results
|